This demonstration page uses our WeatherBlox Daily Observations layout. Learn more.

Left ArrowRight Arrow

Hourly Observations for September 4, 2018

Temp ( °F °C ) Dew Point ( °F °C ) Humidity (%) Winds ( mph kmh ) Pressure ( in mb ) Visibility ( mi km ) Precip ( " mm )
12:21 am 00:21 Cloudy 72 22.2 57 13.9 59 59 N 21 33 29.94 1014 10 16 0.00 0.00
12:30 am 00:30 Cloudy with Nearby Thunderstorms 71 21.7 57 13.9 61 61 N 24 39 29.91 1013 10 16 0.00 0.00
12:40 am 00:40 Cloudy 70 21.1 56 13.3 61 61 N 20 31 29.91 1013 10 16 0.00 0.00
12:53 am 00:53 Cloudy with Light Rain 68 20 60 15.6 76 76 NE 14 22 29.90 1012 10 16 0.00 0.03
1:10 am 01:10 Mostly Cloudy with Nearby Thunderstorms 68 20 62 16.7 81 81 NE 14 22 29.88 1012 10 16 0.00 0.03
1:25 am 01:25 Mostly Cloudy 69 20.6 61 16.1 76 76 NE 13 20 29.88 1012 10 16 0.00 0.03
1:53 am 01:53 Partly Cloudy 69 20.6 60 15.6 73 73 ENE 6 9 29.86 1011 10 16 0.00 0.03
2:53 am 02:53 Mostly Clear 70 21.1 64 17.8 82 82 ESE 9 15 29.85 1011 10 16 0.00 0.00
3:53 am 03:53 Cloudy 74 23.3 64 17.8 71 71 N 13 20 29.87 1012 10 16 0.00 0.00
4:07 am 04:07 Cloudy 73 22.8 63 17.2 71 71 NNW 10 17 29.85 1011 10 16 0.00 0.00
4:35 am 04:35 Mostly Cloudy 71 21.7 61 16.1 71 71 NNE 8 13 29.88 1012 10 16 0.00 0.00
4:53 am 04:53 Mostly Cloudy with Light Rain 70 21.1 61 16.1 73 73 NNE 7 11 29.85 1011 10 16 0.00 0.03
5:27 am 05:27 Mostly Cloudy 69 20.6 64 17.8 84 84 NE 7 11 29.88 1012 10 16 0.00 0.03
5:53 am 05:53 Cloudy 69 20.6 62 16.7 78 78 NE 5 7 29.85 1011 10 16 0.00 0.03
6:36 am 06:36 Partly Cloudy 68 20 64 17.8 87 87 ENE 6 9 29.85 1011 10 16 0.00 0.00
6:53 am 06:53 Clear 68 20 64 17.8 87 87 E 5 7 29.84 1011 10 16 0.00 0.00
7:53 am 07:53 Sunny 68 20 63 17.2 84 84 ESE 6 9 29.86 1011 10 16 0.00 0.00
8:53 am 08:53 Mostly Sunny 73 22.8 64 17.8 74 74 E 6 9 29.89 1012 10 16 0.00 0.00
9:06 am 09:06 Mostly Cloudy 73 22.8 64 17.8 74 74 E 5 7 29.88 1012 10 16 0.00 0.00
9:30 am 09:30 Cloudy 73 22.8 67 19.4 81 81 SE 8 13 29.88 1012 10 16 0.00 0.00
9:53 am 09:53 Cloudy 74 23.3 68 20 82 82 SE 10 17 29.90 1013 10 16 0.00 0.00
10:10 am 10:10 Cloudy 75 23.9 68 20 79 79 SE 10 17 29.88 1012 10 16 0.00 0.00
10:53 am 10:53 Cloudy 75 23.9 68 20 79 79 ESE 6 9 29.91 1013 10 16 0.00 0.00
11:24 am 11:24 Mostly Cloudy 77 25 67 19.4 71 71 SE 8 13 29.91 1013 10 16 0.00 0.00
11:53 am 11:53 Partly Cloudy 79 26.1 67 19.4 67 67 SE 10 17 29.91 1013 10 16 0.00 0.00
12:53 pm 12:53 Mostly Cloudy 81 27.2 66 18.9 61 61 SE 7 11 29.91 1013 10 16 0.00 0.00
1:53 pm 13:53 Mostly Sunny 85 29.4 65 18.3 51 51 E 8 13 29.88 1012 10 16 0.00 0.00
2:53 pm 14:53 Mostly Sunny 86 30 65 18.3 49 49 Calm 29.85 1011 10 16 0.00 0.00
3:53 pm 15:53 Sunny 88 31.1 63 17.2 43 43 ESE 6 9 29.81 1010 10 16 0.00 0.00
4:53 pm 16:53 Sunny 89 31.7 61 16.1 39 39 E 7 11 29.80 1009 10 16 0.00 0.00
5:53 pm 17:53 Sunny 90 32.2 60 15.6 37 37 VRB 7 11 29.78 1009 10 16 0.00 0.00
6:53 pm 18:53 Sunny 89 31.7 60 15.6 38 38 ESE 9 15 29.78 1009 10 16 0.00 0.00
7:53 pm 19:53 Sunny 86 30 62 16.7 45 45 SE 6 9 29.80 1009 10 16 0.00 0.00
8:53 pm 20:53 Clear 82 27.8 64 17.8 55 55 ESE 9 15 29.82 1010 10 16 0.00 0.00
9:53 pm 21:53 Clear 82 27.8 64 17.8 55 55 ESE 15 24 29.85 1011 10 16 0.00 0.00
10:53 pm 22:53 Clear 80 26.7 66 18.9 62 62 SE 16 26 29.88 1012 10 16 0.00 0.00
11:53 pm 23:53 Clear 77 25 67 19.4 71 71 SE 14 22 29.88 1012 10 16 0.00 0.00

Powered by AerisWeather